Location: Vancouver
(49.2500°N, 123.1330°W)
Time: 18:09:09
(UTC-07:00)

Iridium 35 - Visible Passes

Search period start: 20 October 2017 00:00
Search period end: 30 October 2017 00:00
Orbit: 776 x 779 km, 86.4° (Epoch: 20 October)

Date Brightness Start Highest point End Pass type
(mag) Time Alt. Az. Time Alt. Az. Time Alt. Az.
20 Oct 6.7 04:03:46 10° N 04:06:28 28° NNE 04:06:28 28° NNE visible
20 Oct 6.6 05:44:58 10° NNW 05:46:53 19° NW 05:46:53 19° NW visible
20 Oct 7.8 18:48:19 10° WSW 18:51:27 16° WNW 18:54:35 10° NNW visible
21 Oct 7.4 03:30:35 10° NNE 03:32:15 18° NNE 03:32:15 18° NNE visible
21 Oct 6.7 05:11:01 10° NNW 05:12:40 20° NNW 05:12:40 20° NNW visible
22 Oct 8.0 02:57:47 10° NNE 02:58:09 11° NNE 02:58:09 11° NNE visible
22 Oct 7.1 04:37:18 10° N 04:38:34 18° N 04:38:34 18° N visible
23 Oct 7.5 04:03:47 10° N 04:04:33 14° N 04:04:33 14° N visible
23 Oct 8.1 18:50:09 10° W 18:51:51 11° WNW 18:53:34 10° NW visible
24 Oct 7.8 03:30:27 10° N 03:30:36 11° N 03:30:36 11° N visible
